Golden Triangle, MS

9:06 PM CDT on July 24, 2017 (GMT -0500)
Golden Triangle Regional

Weather History for KGTR - October, 2012

Change the Weather History Date:

Friday, October 12, 2012

  Actual Average Record
Temperature  
Mean Temperature 70 °F -  
Max Temperature 86 °F 74 °F 87 °F (2013)
Min Temperature 55 °F 51 °F 35 °F (2000)
Cooling Degree Days 6    
Growing Degree Days 20 (Base 50)    
Moisture  
Dew Point 61 °F    
Average Humidity 81    
Maximum Humidity 94    
Minimum Humidity 48    
Precipitation  
Precipitation 0.00 in - - ()
Sea Level Pressure  
Sea Level Pressure 30.22 in    
Wind  
Wind Speed 3 mph (SSE)    
Max Wind Speed 7 mph    
Max Gust Speed -    
Visibility 7 miles    
Events      
Averages and records for this station are not official NWS values.
T = Trace of Precipitation, MM = Missing Value Source: NWS Daily Summary

Daily Weather History Graph

Daily Weather History Graph

Search for Another Location

Airport or City:

Trip Planner

Search our weather history database for the weather conditions in past years. The results will help you decide how hot, cold, wet, or windy it might be!

Date:

Astronomy

Oct. 12, 2012 Rise Set
Actual Time 6:57 AM CDT 6:23 PM CDT
Civil Twilight 6:32 AM CDT 6:48 PM CDT
Nautical Twilight 6:03 AM CDT 7:17 PM CDT
Astronomical Twilight 5:34 AM CDT 7:46 PM CDT
Moon 3:48 AM CDT (10/12) 4:27 PM CDT (10/12)
Length of Visible Light 12h 16m
Length of Day
11h 26m
Waning Crescent, 10% of the Moon is Illuminated
Oct 12
Waning Crescent
Oct 15
New
Oct 21
First Quarter
Oct 29
Full
Nov 6
Last Quarter

Hourly Weather History & Observations

Time (CDT) Temp. Heat Index Dew Point Humidity Pressure Visibility Wind Dir Wind Speed Gust Speed Precip Events Conditions
12:15 AM 64.4 °F - 60.8 °F 88% 30.22 in 10.0 mi SSE 5.8 mph - N/A   Clear
12:35 AM 62.6 °F - 60.8 °F 94% 30.22 in 10.0 mi SSE 4.6 mph - N/A   Clear
12:55 AM 62.6 °F - 60.8 °F 94% 30.21 in 9.0 mi SSE 4.6 mph - N/A   Clear
1:15 AM 62.6 °F - 59.0 °F 88% 30.22 in 7.0 mi SSE 3.5 mph - N/A   Clear
1:35 AM 62.6 °F - 59.0 °F 88% 30.21 in 5.0 mi SSE 3.5 mph - N/A   Clear
1:55 AM 62.6 °F - 59.0 °F 88% 30.21 in 6.0 mi Calm Calm - N/A   Clear
2:15 AM 62.6 °F - 59.0 °F 88% 30.20 in 9.0 mi Calm Calm - N/A   Clear
2:35 AM 62.6 °F - 59.0 °F 88% 30.21 in 6.0 mi Calm Calm - N/A   Clear
2:55 AM 60.8 °F - 57.2 °F 88% 30.20 in 4.0 mi Calm Calm - N/A   Clear
3:15 AM 60.8 °F - 57.2 °F 88% 30.20 in 4.0 mi Calm Calm - N/A   Clear
3:35 AM 59.0 °F - 55.4 °F 88% 30.20 in 3.0 mi Calm Calm - N/A   Clear
3:55 AM 57.2 °F - 55.4 °F 94% 30.21 in 3.0 mi Calm Calm - N/A   Clear
4:15 AM 57.2 °F - 55.4 °F 94% 30.21 in 3.0 mi Calm Calm - N/A   Clear
4:35 AM 59.0 °F - 57.2 °F 94% 30.21 in 0.2 mi Calm Calm - N/A   Unknown
4:55 AM 59.0 °F - 57.2 °F 94% 30.22 in 4.0 mi South 3.5 mph - N/A   Clear
5:15 AM 57.2 °F - 55.4 °F 94% 30.22 in 0.5 mi South 3.5 mph - N/A   Unknown
5:35 AM 57.2 °F - 55.4 °F 94% 30.22 in 0.5 mi South 3.5 mph - N/A   Unknown
5:50 AM 57.2 °F - 55.4 °F 94% 30.22 in 4.0 mi Calm Calm - N/A   Clear
6:55 AM 55.4 °F - 53.6 °F 94% 30.24 in 1.0 mi South 4.6 mph - N/A   Clear
7:50 AM 60.8 °F - 57.2 °F 88% 30.25 in 4.0 mi South 4.6 mph - N/A   Scattered Clouds
9:50 AM 75.2 °F - 62.6 °F 65% 30.27 in 10.0 mi SSW 6.9 mph - N/A   Clear
11:50 AM 82.4 °F 83.9 °F 64.4 °F 54% 30.27 in 10.0 mi SSW 6.9 mph - N/A   Clear
12:50 PM 82.4 °F 83.9 °F 64.4 °F 54% 30.25 in 10.0 mi South 4.6 mph - N/A   Scattered Clouds
1:50 PM 82.4 °F 83.9 °F 64.4 °F 54% 30.22 in 10.0 mi Calm Calm - N/A   Mostly Cloudy
2:50 PM 86.0 °F 87.3 °F 64.4 °F 48% 30.21 in 10.0 mi North 4.6 mph - N/A   Mostly Cloudy
3:55 PM 84.2 °F 85.6 °F 64.4 °F 51% 30.20 in 10.0 mi Calm Calm - N/A   Scattered Clouds
5:45 PM 82.4 °F 84.6 °F 66.2 °F 58% 30.20 in 10.0 mi Calm Calm - N/A   Partly Cloudy
6:45 PM 77.0 °F - 64.4 °F 65% 30.19 in 10.0 mi Calm Calm - N/A   Mostly Cloudy
7:45 PM 73.4 °F - 66.2 °F 78% 30.19 in 10.0 mi South 5.8 mph - N/A   Partly Cloudy
8:15 PM 73.4 °F - 66.2 °F 78% 30.20 in 10.0 mi SSE 3.5 mph - N/A   Clear
8:35 PM 73.4 °F - 66.2 °F 78% 30.21 in 10.0 mi Calm Calm - N/A   Clear
9:15 PM 71.6 °F - 64.4 °F 78% 30.21 in 10.0 mi Calm Calm - N/A   Clear
9:35 PM 71.6 °F - 64.4 °F 78% 30.21 in 10.0 mi ESE 3.5 mph - N/A   Clear
9:55 PM 69.8 °F - 66.2 °F 88% 30.21 in 10.0 mi SE 4.6 mph - N/A   Clear
10:15 PM 69.8 °F - 64.4 °F 83% 30.21 in 8.0 mi South 3.5 mph - N/A   Clear
10:55 PM 69.8 °F - 64.4 °F 83% 30.21 in 6.0 mi Calm Calm - N/A   Clear
11:15 PM 69.8 °F - 64.4 °F 83% 30.21 in 7.0 mi SSE 3.5 mph - N/A   Clear
11:35 PM 69.8 °F - 64.4 °F 83% 30.21 in 7.0 mi Calm Calm - N/A   Clear
11:55 PM 69.8 °F - 64.4 °F 83% 30.21 in 8.0 mi SSE 5.8 mph - N/A   Scattered Clouds